This is the latest recevied weather packets stored in our database for station/object KG0HG. If no packets are shown the sender has not sent any weather packets the latest 10 day(s).
| Time | Temp. | Humidity | Pressure | Rain* | Wind** | Luminosity | Snow |
|---|---|---|---|---|---|---|---|
| 1778090912 | 12.78° C | 36% | 1019.3 hPa | 0 mm | - | 148 W/m² | - |
| 1778090608 | 12.78° C | 38% | 1019.4 hPa | 0 mm | - | 144 W/m² | - |
| 1778090304 | 12.78° C | 39% | 1019.5 hPa | 0 mm | - | 154 W/m² | - |
| 1778090001 | 12.78° C | 36% | 1019.4 hPa | 0 mm | - | 137 W/m² | - |
| 1778089699 | 12.78° C | 38% | 1019.3 hPa | 0 mm | - | 138 W/m² | - |
| 1778089396 | 12.78° C | 37% | 1019.5 hPa | 0 mm | - | 153 W/m² | - |
| 1778089093 | 12.78° C | 39% | 1019.5 hPa | 0 mm | - | 142 W/m² | - |
| 1778088790 | 12.78° C | 38% | 1019.4 hPa | 0 mm | - | 158 W/m² | - |
| 1778088487 | 13.33° C | 38% | 1019.4 hPa | 0 mm | - | 146 W/m² | - |
| 1778088183 | 12.78° C | 39% | 1019.4 hPa | 0 mm | - | 150 W/m² | - |
| 1778087881 | 12.78° C | 37% | 1019.5 hPa | 0 mm | - | 170 W/m² | - |
| 1778087578 | 12.78° C | 37% | 1019.3 hPa | 0 mm | - | 182 W/m² | - |
| 1778087276 | 12.78° C | 36% | 1019.3 hPa | 0 mm | - | 196 W/m² | - |
| 1778086972 | 12.78° C | 37% | 1019.3 hPa | 0 mm | - | 163 W/m² | - |
| 1778086670 | 12.22° C | 37% | 1019.5 hPa | 0 mm | - | 135 W/m² | - |
| 1778086367 | 12.78° C | 39% | 1019.3 hPa | 0 mm | - | 138 W/m² | - |
| 1778086064 | 12.22° C | 37% | 1019.5 hPa | 0 mm | - | 133 W/m² | - |
| 1778085761 | 12.78° C | 39% | 1019.5 hPa | 0 mm | - | 158 W/m² | - |
| 1778085458 | 12.78° C | 40% | 1019.2 hPa | 0 mm | - | 156 W/m² | - |
| 1778085152 | 12.78° C | 43% | 1019.3 hPa | 0 mm | - | 145 W/m² | - |
| 1778084849 | 12.78° C | 42% | 1019.2 hPa | 0 mm | - | 137 W/m² | - |
| 1778084547 | 12.78° C | 39% | 1019.3 hPa | 0 mm | - | 139 W/m² | - |
| 1778084244 | 12.22° C | 41% | 1019.3 hPa | 0 mm | - | 141 W/m² | - |
| 1778083941 | 12.22° C | 40% | 1019.3 hPa | 0 mm | - | 147 W/m² | - |
| 1778083639 | 12.22° C | 42% | 1019.1 hPa | 0 mm | - | 132 W/m² | - |
* Rain latest hour (hover to see other rain measurements)
** Current wind speed in m/s (hover to see current wind gust speed)